Location: Bukit Lungun
(2.6833°N, 113.9667°E)
Time: 12:02:37
(UTC+00:00)

H-2A R/B - Pass Details

Date: 02 March 2021
Orbit: 501 x 538 km, 97.3° (Epoch: 12 March)

Event Time Altitude Azimuth Distance (km) Brightness Sun altitude
Rises 21:32:06 0° 9° (N) 2,672 6.4 -16.2°
Reaches altitude 10° 21:34:12 10° 8° (N) 1,781 5.4 -15.7°
Maximum altitude 21:38:03 79° 281° (W) 545 2.6 -14.7°
Drops below altitude 10° 21:41:53 10° 194° (SSW) 1,771 5.3 -13.8°
Sets 21:43:58 0° 193° (SSW) 2,656 6.2 -13.3°
